• Em Portugal
  • Lista de países
  • Para 7 dias
  • Temperatura da água
  • Mapas de satélite
  • Mapa do tempo
  • Widgets de tempo
  • user-avatar
    Iniciar Sessão

    Previsão horária em Palanga

    Hoje, 20 Agosto, Segunda-feira

    Tempo Temperatura Precipitação Vento Pressão Humidade
    00:00 +18°C° 0 mm 4 m/s 761 mmHg 94%
    01:00 +18°C° 0 mm 4 m/s 761 mmHg 94%
    02:00 +17°C° 0 mm 5 m/s 760 mmHg 93%
    03:00 +17°C° 0 mm 5 m/s 760 mmHg 91%
    04:00 +17°C° 0 mm 5 m/s 760 mmHg 90%
    05:00 +17°C° 0 mm 5 m/s 759 mmHg 87%
    06:00 +19°C° 0 mm 5 m/s 759 mmHg 84%
    07:00 +20°C° 0 mm 5 m/s 759 mmHg 80%
    08:00 +21°C° 0 mm 5 m/s 758 mmHg 74%
    09:00 +23°C° 0 mm 6 m/s 758 mmHg 68%
    10:00 +24°C° 0 mm 6 m/s 758 mmHg 62%
    11:00 +24°C° 0 mm 6 m/s 757 mmHg 63%
    12:00 +24°C° 0 mm 7 m/s 757 mmHg 63%
    13:00 +24°C° 0 mm 7 m/s 757 mmHg 64%
    14:00 +23°C° 0,2 mm 8 m/s 756 mmHg 70%
    15:00 +22°C° 0,2 mm 8 m/s 756 mmHg 77%
    16:00 +21°C° 0,2 mm 9 m/s 756 mmHg 83%
    17:00 +21°C° 0,2 mm 9 m/s 756 mmHg 85%
    18:00 +19°C° 0,2 mm 9 m/s 756 mmHg 88%
    19:00 +18°C° 0,2 mm 9 m/s 756 mmHg 90%
    20:00 +18°C° 0,1 mm 8 m/s 756 mmHg 90%
    21:00 +17°C° 0,1 mm 7 m/s 756 mmHg 91%
    22:00 +16°C° 0,1 mm 6 m/s 756 mmHg 91%
    23:00 +16°C° 0,1 mm 5 m/s 757 mmHg 92%

    Amanhã, 21 Agosto, Terça-feira

    Tempo Temperatura Precipitação Vento Pressão Humidade
    00:00 +15°C° 0,1 mm 5 m/s 757 mmHg 94%
    01:00 +15°C° 0,1 mm 4 m/s 757 mmHg 95%
    02:00 +14°C° 0 mm 4 m/s 758 mmHg 94%
    03:00 +14°C° 0 mm 5 m/s 758 mmHg 94%
    04:00 +14°C° 0 mm 5 m/s 759 mmHg 93%
    05:00 +15°C° 0,1 mm 5 m/s 759 mmHg 88%
    06:00 +16°C° 0,1 mm 5 m/s 760 mmHg 83%
    07:00 +17°C° 0,1 mm 5 m/s 760 mmHg 78%
    08:00 +19°C° 0 mm 5 m/s 761 mmHg 71%
    09:00 +19°C° 0 mm 5 m/s 761 mmHg 63%
    10:00 +20°C° 0 mm 5 m/s 762 mmHg 56%
    11:00 +20°C° 0 mm 5 m/s 762 mmHg 55%
    12:00 +21°C° 0 mm 5 m/s 763 mmHg 54%
    13:00 +21°C° 0 mm 6 m/s 763 mmHg 53%
    14:00 +20°C° 0 mm 5 m/s 763 mmHg 55%
    15:00 +20°C° 0 mm 5 m/s 764 mmHg 57%
    16:00 +19°C° 0 mm 5 m/s 764 mmHg 60%
    17:00 +18°C° 0 mm 4 m/s 764 mmHg 66%
    18:00 +15°C° 0 mm 4 m/s 765 mmHg 73%
    19:00 +13°C° 0 mm 3 m/s 765 mmHg 79%
    20:00 +13°C° 0 mm 3 m/s 765 mmHg 82%
    21:00 +13°C° 0 mm 2 m/s 766 mmHg 85%
    22:00 +12°C° 0 mm 2 m/s 766 mmHg 88%
    23:00 +12°C° 0 mm 2 m/s 766 mmHg 88%

    Depois de amanhã, 22 Agosto, Quarta-feira

    Tempo Temperatura Precipitação Vento Pressão Humidade
    00:00 +10°C° 0 mm 2 m/s 766 mmHg 89%
    01:00 +11°C° 0 mm 1 m/s 766 mmHg 89%
    02:00 +10°C° 0 mm 2 m/s 767 mmHg 89%
    03:00 +10°C° 0 mm 2 m/s 767 mmHg 89%
    04:00 +10°C° 0 mm 2 m/s 767 mmHg 90%
    05:00 +11°C° 0 mm 3 m/s 767 mmHg 85%
    06:00 +13°C° 0 mm 3 m/s 767 mmHg 80%
    07:00 +14°C° 0 mm 4 m/s 767 mmHg 75%
    08:00 +15°C° 0 mm 4 m/s 767 mmHg 69%
    09:00 +18°C° 0 mm 4 m/s 767 mmHg 63%
    10:00 +19°C° 0 mm 4 m/s 767 mmHg 57%
    11:00 +20°C° 0 mm 4 m/s 767 mmHg 55%
    12:00 +20°C° 0 mm 4 m/s 766 mmHg 53%
    13:00 +21°C° 0 mm 4 m/s 766 mmHg 51%
    14:00 +21°C° 0 mm 4 m/s 766 mmHg 52%
    15:00 +21°C° 0 mm 4 m/s 766 mmHg 53%
    16:00 +21°C° 0 mm 4 m/s 765 mmHg 54%
    17:00 +19°C° 0 mm 4 m/s 765 mmHg 60%
    18:00 +17°C° 0 mm 4 m/s 765 mmHg 66%
    19:00 +15°C° 0 mm 4 m/s 764 mmHg 72%
    20:00 +14°C° 0 mm 5 m/s 764 mmHg 73%
    21:00 +14°C° 0 mm 5 m/s 764 mmHg 74%
    22:00 +13°C° 0 mm 6 m/s 764 mmHg 75%
    23:00 +14°C° 0 mm 6 m/s 764 mmHg 74%

    23 Agosto, Quinta-feira

    Tempo Temperatura Precipitação Vento Pressão Humidade
    00:00 +14°C° 0 mm 6 m/s 763 mmHg 73%
    01:00 +14°C° 0 mm 6 m/s 763 mmHg 72%
    02:00 +13°C° 0 mm 6 m/s 762 mmHg 73%
    03:00 +13°C° 0 mm 6 m/s 762 mmHg 74%
    04:00 +13°C° 0 mm 6 m/s 762 mmHg 75%
    05:00 +14°C° 0 mm 6 m/s 762 mmHg 74%
    06:00 +15°C° 0 mm 6 m/s 761 mmHg 73%
    07:00 +17°C° 0 mm 6 m/s 761 mmHg 72%
    08:00 +19°C° 0 mm 6 m/s 761 mmHg 69%
    09:00 +21°C° 0 mm 6 m/s 761 mmHg 65%
    10:00 +23°C° 0 mm 6 m/s 761 mmHg 62%
    11:00 +24°C° 0 mm 6 m/s 760 mmHg 59%
    12:00 +26°C° 0 mm 6 m/s 760 mmHg 56%
    13:00 +27°C° 0 mm 6 m/s 760 mmHg 53%
    14:00 +26°C° 0 mm 5 m/s 760 mmHg 56%
    15:00 +26°C° 0 mm 5 m/s 760 mmHg 58%
    16:00 +26°C° 0 mm 4 m/s 759 mmHg 61%
    17:00 +23°C° 0 mm 4 m/s 759 mmHg 67%
    18:00 +22°C° 0 mm 4 m/s 759 mmHg 73%
    19:00 +20°C° 0 mm 4 m/s 759 mmHg 79%
    20:00 +20°C° 0 mm 5 m/s 758 mmHg 80%
    21:00 +19°C° 0 mm 5 m/s 758 mmHg 82%
    22:00 +19°C° 0 mm 6 m/s 758 mmHg 83%
    23:00 +19°C° 0 mm 6 m/s 758 mmHg 83%

    24 Agosto, Sexta-feira

    Tempo Temperatura Precipitação Vento Pressão Humidade
    00:00 +17°C° 0 mm 6 m/s 757 mmHg 83%
    01:00 +17°C° 0 mm 6 m/s 757 mmHg 83%
    02:00 +17°C° 0,1 mm 6 m/s 757 mmHg 85%
    03:00 +17°C° 0,1 mm 6 m/s 756 mmHg 87%
    04:00 +16°C° 0,1 mm 5 m/s 756 mmHg 89%
    05:00 +17°C° 0,1 mm 6 m/s 756 mmHg 87%
    06:00 +19°C° 0,1 mm 6 m/s 755 mmHg 86%
    07:00 +20°C° 0,1 mm 6 m/s 755 mmHg 85%
    08:00 +22°C° 0 mm 6 m/s 755 mmHg 79%
    09:00 +23°C° 0 mm 7 m/s 755 mmHg 73%
    10:00 +26°C° 0 mm 7 m/s 754 mmHg 66%
    11:00 +26°C° 0,1 mm 6 m/s 754 mmHg 69%
    12:00 +26°C° 0,1 mm 6 m/s 754 mmHg 71%
    13:00 +26°C° 0,1 mm 6 m/s 754 mmHg 73%
    14:00 +26°C° 0,4 mm 5 m/s 754 mmHg 74%
    15:00 +26°C° 0,4 mm 4 m/s 754 mmHg 76%
    16:00 +26°C° 0,4 mm 4 m/s 754 mmHg 77%
    17:00 +25°C° 0,8 mm 4 m/s 754 mmHg 82%
    18:00 +22°C° 0,8 mm 4 m/s 754 mmHg 87%
    19:00 +21°C° 0,8 mm 4 m/s 754 mmHg 92%
    20:00 +20°C° 0,5 mm 4 m/s 754 mmHg 93%
    21:00 +19°C° 0,5 mm 4 m/s 754 mmHg 95%
    22:00 +18°C° 0,5 mm 4 m/s 754 mmHg 96%
    23:00 +18°C° 0,4 mm 4 m/s 755 mmHg 95%

    25 Agosto, Sábado

    Tempo Temperatura Precipitação Vento Pressão Humidade
    00:00 +18°C° 0,4 mm 4 m/s 755 mmHg 93%
    01:00 +17°C° 0,4 mm 4 m/s 755 mmHg 92%
    02:00 +17°C° 0 mm 4 m/s 756 mmHg 92%
    03:00 +17°C° 0 mm 4 m/s 756 mmHg 92%
    04:00 +17°C° 0 mm 4 m/s 756 mmHg 92%
    05:00 +18°C° 0 mm 4 m/s 756 mmHg 88%
    06:00 +18°C° 0 mm 4 m/s 757 mmHg 85%
    07:00 +19°C° 0 mm 4 m/s 757 mmHg 82%
    08:00 +19°C° 0 mm 4 m/s 758 mmHg 76%
    09:00 +20°C° 0 mm 3 m/s 758 mmHg 69%
    10:00 +21°C° 0 mm 3 m/s 758 mmHg 63%
    11:00 +21°C° 0 mm 3 m/s 758 mmHg 62%
    12:00 +21°C° 0 mm 3 m/s 758 mmHg 60%
    13:00 +21°C° 0 mm 2 m/s 758 mmHg 59%
    14:00 +20°C° 0 mm 3 m/s 759 mmHg 63%
    15:00 +19°C° 0 mm 3 m/s 759 mmHg 67%
    16:00 +18°C° 0 mm 3 m/s 759 mmHg 71%
    17:00 +17°C° 0,1 mm 3 m/s 759 mmHg 73%
    18:00 +17°C° 0,1 mm 3 m/s 758 mmHg 75%
    19:00 +15°C° 0,1 mm 4 m/s 758 mmHg 77%
    20:00 +15°C° 0,5 mm 4 m/s 758 mmHg 80%
    21:00 +14°C° 0,5 mm 4 m/s 758 mmHg 84%
    22:00 +13°C° 0,5 mm 4 m/s 758 mmHg 87%
    23:00 +13°C° 1,3 mm 4 m/s 758 mmHg 89%
    Mostrar mais